Flag for Poland Weather past 2 weeks in Wroclaw, Poland

Now
50 °F

Passing clouds.


Feels Like: 45 °F
Forecast: 35 / 50 °F
Wind: 15 mph from West

Location: Wroclaw Ii

Current Time: Mar 30, 2015 at 10:12:22 AM

Latest Report: Mar 30, 2015 at 10:00 AM


Visibility: N/A

Pressure: 29.30 "Hg

Humidity: 54%

Dew point: 34 °F

Location of WroclawLocation

Historic Weather in Wroclaw — Graph

°F

Wroclaw temperature yesterday

Maximum temperature yesterday: 54 °F (at 1:30 PM)
Minimum temperature yesterday: 30 °F (at 12:30 AM)
Average temperature yesterday: 46 °F

Past Weeks' High & Low Weather Summary

 TemperatureHumidityPressure
High66 °F (Mar 25, 2:30 PM)94% (Mar 26, 8:30 AM)30.54 "Hg (Mar 26, 8:30 AM)
Low27 °F (Mar 23, 1:00 AM)22% (Mar 18, 12:30 PM)29.18 "Hg (Mar 30, 3:00 AM)
Average45 °F66%30.08 "Hg
* Reported Mar 15 8:00 AM — Mar 30 9:00 AM, Wroclaw, Weather by CustomWeather, © 2015

Note: Actual official high and low records may vary slightly from our data, if they occured in-between our weather recording intervals... More about our weather records

Advertising

Wroclaw weather history for previous 24 hours

 ConditionsComfort  
Time TempWeatherWind HumidityBarometerVisibility
9:00 AM
Mon, Mar 30
48 °FScattered clouds.20 mph58%29.27 "HgN/A
8:30 AM48 °FPartly sunny.18 mph58%29.30 "HgN/A
8:00 AM46 °FPartly sunny.13 mph66%29.30 "HgN/A
7:30 AM46 °FPassing clouds.15 mph66%29.27 "HgN/A
7:00 AM46 °FPassing clouds.15 mph66%29.27 "HgN/A
6:30 AM46 °FPassing clouds.16 mph66%29.27 "HgN/A
6:00 AM46 °FPassing clouds.21 mph71%29.24 "HgN/A
5:30 AM48 °FSprinkles. Passing clouds.26 mph66%29.24 "HgN/A
5:00 AM48 °FPassing clouds.16 mph71%29.21 "HgN/A
4:30 AM48 °FClear.15 mph76%29.21 "Hg10 mi
4:00 AM48 °FPassing clouds.15 mph76%29.21 "HgN/A
3:30 AM50 °FLots of rain. Passing clouds.15 mph88%29.21 "Hg4 mi
3:00 AM52 °FLight rain. Clear.10 mph77%29.18 "HgN/A
2:30 AM52 °FPassing clouds.10 mph77%29.21 "HgN/A
2:00 AM52 °FPassing clouds.9 mph77%29.21 "HgN/A
1:30 AM52 °FLight rain. Passing clouds.12 mph77%29.24 "HgN/A
1:00 AM50 °FLight rain. Clear.10 mph82%29.27 "HgN/A
12:30 AM50 °FLight rain. Clear.6 mph88%29.30 "HgN/A
12:00 AM50 °FRain. Passing clouds.8 mph88%29.33 "HgN/A
11:30 PM
Sun, Mar 29
52 °FLight rain. Passing clouds.6 mph77%29.33 "HgN/A
11:00 PM52 °FLight rain. Passing clouds.7 mph77%29.36 "HgN/A
10:30 PM50 °FLight rain. Passing clouds.6 mph88%29.39 "HgN/A
10:00 PM50 °FLight rain. Passing clouds.6 mph88%29.42 "HgN/A
9:30 PM50 °FLight rain. Passing clouds.5 mph88%29.45 "HgN/A
9:00 PM50 °FLight rain. Passing clouds.3 mph88%29.45 "HgN/A
8:30 PM52 °FLight rain. Passing clouds.5 mph82%29.47 "HgN/A
8:00 PM52 °FLight rain. Partly sunny.5 mph88%29.47 "HgN/A
7:30 PM52 °FLight rain. Partly sunny.7 mph88%29.50 "HgN/A
7:00 PM52 °FLight rain. Partly sunny.7 mph82%29.50 "HgN/A
6:30 PM54 °FLight rain. Scattered clouds.7 mph77%29.50 "HgN/A
6:00 PM52 °FLight rain. Scattered clouds.7 mph82%29.50 "HgN/A
5:30 PM54 °FLight rain. Partly sunny.9 mph77%29.53 "HgN/A
5:00 PM52 °FLight rain. Broken clouds.7 mph88%29.53 "HgN/A
4:30 PM52 °FLight rain. Partly sunny.9 mph88%29.56 "HgN/A
4:00 PM54 °FLight rain. Partly sunny.7 mph77%29.56 "HgN/A
3:30 PM54 °FPartly sunny.9 mph72%29.59 "HgN/A
3:00 PM54 °FLight rain. Broken clouds.9 mph72%29.59 "HgN/A
2:30 PM54 °FPartly sunny.10 mph77%29.62 "HgN/A
2:00 PM54 °FPartly sunny.12 mph72%29.62 "HgN/A
1:30 PM54 °FPartly sunny.7 mph72%29.62 "HgN/A
1:00 PM52 °FPassing clouds.8 mph82%29.65 "HgN/A
12:30 PM50 °FPassing clouds.8 mph94%29.65 "HgN/A
12:00 PM48 °FLight rain. Partly sunny.6 mph87%29.68 "Hg6 mi
11:30 AM46 °FLight rain. Fog.6 mph87%29.68 "Hg3 mi
11:00 AM45 °FLight rain. Fog.7 mph93%29.71 "Hg2 mi
10:30 AM45 °FLight rain. Fog.8 mph93%29.71 "Hg2 mi
10:00 AM48 °FPartly sunny.9 mph71%29.71 "HgN/A
Weather by CustomWeather, © 2015

See weather overviewHow to use our weather pages